Location: Unspecified
(41.1534°N, 0.0000°E)
Time: 14:58:08
(UTC+00:00)

COSMOS 1417 DEB - Visible Passes

Search period start: 04 April 2026 00:00
Search period end: 14 April 2026 00:00
Orbit: 952 x 1004 km, 83.0° (Epoch: 21 February)

Date Brightness Start Highest point End Pass type
(mag) Time Alt. Az. Time Alt. Az. Time Alt. Az.
4 Apr ? 19:46:48 10° NNW 19:53:00 55° W 19:59:06 10° SSW visible
5 Apr ? 20:13:24 10° NNW 20:18:49 30° W 20:24:09 10° SW visible
6 Apr ? 18:53:28 10° N 18:59:51 74° E 19:06:06 10° SSE visible
6 Apr ? 20:40:44 10° NW 20:44:27 16° W 20:48:09 10° WSW visible
7 Apr ? 19:19:37 10° NNW 19:25:53 63° W 19:32:02 10° S visible
8 Apr ? 19:46:08 10° NNW 19:51:44 34° W 19:57:16 10° SSW visible
9 Apr ? 20:13:15 10° NW 20:17:25 19° W 20:21:32 10° WSW visible
10 Apr ? 18:52:27 10° NNW 18:58:46 70° W 19:04:57 10° S visible
11 Apr ? 19:18:54 10° NNW 19:24:39 38° W 19:30:20 10° SSW visible
12 Apr ? 19:45:51 10° NW 19:50:22 21° W 19:54:49 10° SW visible
13 Apr ? 20:14:50 10° WNW 20:15:53 10° WNW 20:16:57 10° W visible
